Regional Weather Roundup
Issued by NWS

Home | Current Version | Previous Version | Graphics & Text | Print | Product List | Glossary On
Versions: 1 2 3 4 5 6 7 8 9 10 11 12 13 14 15 16 17 18 19 20 21 22 23 24 25 26 27
000
ASUS45 KPSR 272210
RWRAZ

ARIZONA HOURLY REGIONAL WEATHER ROUNDUP
NATIONAL WEATHER SERVICE PHOENIX AZ
300 PM MST MON MAR 27 2017

NOTE: FAIR INDICATES FEW OR NO CLOUDS BELOW 12,000 FEET WITH NO
SIGNIFICANT WEATHER AND/OR OBSTRUCTIONS TO VISIBILITY.

AZZ001>003-036-272300-
NORTHWEST ARIZONA

CITY           SKY/WX    TMP DP  RH WIND       PRES   REMARKS
BULLHEAD CITY  MOSUNNY   79  30  17 N13       29.73F
KINGMAN        PTSUNNY   68  16  13 SW18G25   29.83F
$$

AZZ004>008-015-016-018-272300-
NORTH CENTRAL ARIZONA

CITY           SKY/WX    TMP DP  RH WIND       PRES   REMARKS
GRAND CANYON   PTSUNNY   54  22  28 SW17G35   29.84F
WILLIAMS       PTSUNNY   52  30  43 SW20G26   29.88F
PRESCOTT       PTSUNNY   61  35  37 SW18G31   29.86F
FLAGSTAFF      PTSUNNY   50  32  50 S20G25    29.88F
PAYSON         CLOUDY    59  30  33 SW10G17   29.92F
PAGE           CLOUDY    64  35  34 W7        29.71F
$$

AZZ009>014-017-272300-
NORTHEAST ARIZONA

CITY           SKY/WX    TMP DP  RH WIND       PRES   REMARKS
WINSLOW        MOSUNNY   69  30  23 SW21G31   29.82F
SAINT JOHNS    CLOUDY    58  28  32 SW23G31   29.88F
WINDOW ROCK    CLOUDY    54  29  38 SW14G24   29.91F
SHOW LOW       PTSUNNY   57  23  26 S21G26    29.93F
$$

AZZ023-272300-
GREATER PHOENIX AREA

CITY           SKY/WX    TMP DP  RH WIND       PRES   REMARKS
PHOENIX        MOSUNNY   82  34  17 SW13G20   29.75F
BUCKEYE        SUNNY     81  37  21 W13G22    29.77F
GLENDALE       MOSUNNY   81  34  18 S10G20    29.77F
LUKE AFB       SUNNY     81  36  19 S16       29.74F
DEER VALLEY    MOSUNNY   78  36  21 S8G17     29.76F
SCOTTSDALE     PTSUNNY   79  33  19 SW7G18    29.78F
MESA-FALCON    MOSUNNY  N/A N/A N/A SW12G21   29.75F
MESA-GATEWAY   MOSUNNY   79  34  19 W10       29.79F
CHANDLER       MOSUNNY   81  32  17 VRB6      29.76F
$$

AZZ027-028-272300-
SOUTHWEST MARICOPA COUNTY AND PINAL COUNTY

CITY           SKY/WX    TMP DP  RH WIND       PRES   REMARKS
CASA GRANDE    NOT AVBL
GILA BEND      MOSUNNY   83  35  18 SW15G22   29.75F
$$

AZZ503-504-507>509-272300-
SOUTHEAST ARIZONA

CITY           SKY/WX    TMP DP  RH WIND       PRES   REMARKS
TUCSON         PTSUNNY   79  28  15 W13G25    29.84F
DAVIS-MONTHAN  MOSUNNY   77  29  16 W12G21    29.83F
RYAN FIELD     SUNNY     79  32  18 W5G20     29.85F
NOGALES        CLOUDY    75  35  23 W20G25    29.90F
SIERRA VISTA   CLOUDY    74  30  20 W16G23    29.91F
DOUGLAS        SUNNY     78  22  12 SW15G26   29.87F
SAFFORD        CLOUDY    76  27  16 W16G26    29.80F
$$

AZZ020-021-025-026-031-272300-
SOUTHWEST ARIZONA

CITY           SKY/WX    TMP DP  RH WIND       PRES   REMARKS
YUMA           MOSUNNY   81  41  24 W16       29.80F
$$

CAZ031-033-041-043-047-048-061-272300-
SOUTHERN CALIFORNIA

CITY           SKY/WX    TMP DP  RH WIND       PRES   REMARKS
DOWNTOWN L.A.  SUNNY     73  38  27 NW8       29.95F
L.A. AIRPORT   MOSUNNY   67  52  58 W23       29.97F
SAN DIEGO      PTSUNNY   66  52  60 W12       30.01F
BURBANK        SUNNY     71  27  19 NW23G32   29.96F
ONTARIO        MOSUNNY   71  47  42 SW18G24   29.93F
RIVERSIDE      PTSUNNY   72  48  42 W15G23    29.93F
PALM SPRINGS   SUNNY     82  34  17 NW9       29.80F
EL CENTRO NAS  MOSUNNY   83  29  14 W14       29.81F
IMPERIAL       SUNNY     81  37  20 NW12      29.78F
BLYTHE         SUNNY     83  29  14 W9G22     29.76F
NEEDLES        MOSUNNY   81  35  19 NW13G23   29.75F
$$

NVZ020-UTZ003-272300-
SOUTHERN NEVADA-UTAH

CITY           SKY/WX    TMP DP  RH WIND       PRES   REMARKS
LAS VEGAS      PTSUNNY   65  39  38 SE7       29.79S
SALT LAKE CITY LGT RAIN  43  40  89 SW5       29.86S
$$

NMZ009-TXZ055-272300-
NEW MEXICO-WEST TEXAS

CITY           SKY/WX    TMP DP  RH WIND       PRES   REMARKS
ALBUQUERQUE    PTSUNNY   68  18  14 SW10G20   29.83F
EL PASO        MOSUNNY   78  17  10 S9        29.84F
$$


........................KEY........................
SKY/WX - SKY CONDITION/WEATHER
TMP    - TEMPERATURE IN FAHRENHEIT
DP     - DEW POINT IN FAHRENHEIT
RH     - RELATIVE HUMIDITY IN PERCENT
WIND   - DIRECTION AND SPEED IN MILES PER HOUR (MPH)
VRB    - VARIABLE WIND DIRECTION
PRES   - MEAN SEA LEVEL PRESSURE IN INCHES OF MERCURY
         F - FALLING PRESSURE   R - RISING PRESSURE
         S - STEADY PRESSURE
VSB    - VISIBILITY IN MILES
HX     - HEAT INDEX IN FAHRENHEIT
WCI    - WIND CHILL INDEX IN FAHRENHEIT
TC     - TEMPERATURE IN CELSIUS WHICH IS ALSO KNOWN AS
         TEMPERATURE IN CENTIGRADE
AFB    - AIR FORCE BASE
         LUKE AFB IS LUKE AIR FORCE BASE
         DAVIS-MONTHAN IS DAVIS-MONTHAN AIR FORCE BASE
NAS    - NAVAL AIR STATION
         EL CENTRO NAS IS EL CENTRO NAVAL AIR STATION
N/A    - NOT AVAILABLE





USA.gov is the U.S. government's official web portal to all federal, state and local government web resources and services.